www.pogodaiklimat.ru

Погода и климат >> Архив погоды >> Япония >> Эсаси


ПОГОДА в Эсаси

  • Прогноз погоды в Эсаси
  • Монитор погоды в Эсаси

АРХИВ ПОГОДЫ в Эсаси

Время (UTC), дата Ветер
(напр.,м/с)
 
Видим.   Явления Облачность Т
(С)
Тd
(С)
f
(%)
Тe
(С)
Тes
(С)
Комфортность P
(гПа)
Po
(гПа)
Тmin
(С)
Tmax
(С)
R
(мм)
R24
(мм)
S
(см)
16 13.09 В 2 20 км н/о +18.4 +13.7 74 +20 +20 1015.5 1014.1
17 13.09 З 1 20 км н/о +18.4 +14.5 78 +20 +20 1015.3 1013.9
18 13.09 СВ 1 20 км н/о +17.0 +13.9 82 +19 +19 1014.6 1013.2
19 13.09 В 1 20 км н/о +18.3 +13.8 75 +20 +20 1014.4 1013.0
21 13.09 ЮВ 2 20 км н/о +18.6 +14.1 75 +20 +20 1014.6 1013.2
23 13.09 ЮВ 3 20 км н/о +20.2 +13.7 66 +23 +23 комфорт 1014.3 1012.9
00 14.09 В 2 20 км н/о +22.1 +14.2 61 +25 +25 комфорт 1014.1 1012.7 +16.3
01 14.09 ЮВ 1 20 км н/о +22.9 +15.5 63 +27 +27 душно 1013.5 1012.1
02 14.09 З 2 20 км н/о +24.7 +16.4 60 +28 +28 душно 1013.2 1011.8
03 14.09 З 2 20 км н/о +23.6 +15.1 59 +26 +26 жарко 1012.8 1011.4
04 14.09 ЮЗ 2 20 км н/о +24.5 +16.2 60 +28 +28 душно 1012.0 1010.6
05 14.09 ЮЗ 2 20 км н/о +24.2 +16.5 62 +28 +28 душно 1011.3 1009.9
06 14.09 ЮЗ 2 20 км н/о +24.7 +16.4 60 +28 +28 душно 1011.0 1009.6
07 14.09 Ю 2 20 км н/о +24.0 +17.3 66 +28 +28 душно 1011.1 1009.7
08 14.09 ЮВ 2 20 км н/о +23.6 +17.4 68 +27 +27 жарко 1010.9 1009.5
09 14.09 В 2 20 км н/о +22.7 +17.2 71 +28 +28 душно 1011.0 1009.6
10 14.09 В 3 20 км н/о +22.3 +16.4 69 +27 +27 душно 1011.0 1009.6
11 14.09 В 3 20 км н/о +22.3 +16.6 70 +27 +27 душно 1011.0 1009.6
12 14.09 ЮЗ 2 20 км н/о +22.0 +17.4 75 +26 +26 душно 1011.1 1009.7 +25.3
13 14.09 ЮВ 2 20 км н/о +22.1 +16.4 70 +26 +26 душно 1010.6 1009.2
14 14.09 Ю 2 20 км слаб. дождь н/о +21.8 +17.4 76 +26 +26 душно 1010.8 1009.4
15 14.09 ЮВ 3 20 км в посл. час дождь н/о +21.7 +17.5 77 +26 +26 душно 1011.0 1009.6
16 14.09 СВ 2 20 км в посл. час дождь н/о +21.0 +17.6 81 +26 +26 душно 1010.8 1009.4
17 14.09 СЗ 4 20 км н/о +21.8 +16.8 73 +26 +26 душно 1010.6 1009.2
18 14.09 СЗ 3 20 км {дождь} н/о +22.2 +16.7 71 +27 +27 душно 1010.7 1009.3 0.0
19 14.09 В 2 20 км н/о +20.7 +16.9 79 +25 +25 комфорт 1010.6 1009.2
20 14.09 ЮВ 2 20 км н/о +20.6 +17.0 80 +25 +25 комфорт 1010.9 1009.5
21 14.09 В 1 20 км н/о +20.4 +17.4 83 +25 +25 комфорт 1011.2 1009.8
22 14.09 В 4 20 км слаб. дождь н/о +20.5 +16.9 80 +24 +24 комфорт 1011.3 1009.9
23 14.09 СВ 1 20 км в посл. час дождь н/о +21.8 +17.6 77 +26 +26 душно 1011.5 1010.1
00 15.09 С 2 20 км слаб. дождь н/о +21.9 +17.7 77 +26 +26 душно 1011.9 1010.5 +20.0 0.0
01 15.09 С 2 20 км слаб. дождь н/о +21.9 +16.0 69 +26 +26 душно 1011.7 1010.3
02 15.09 С 1 8000 м слаб. дождь н/о +21.2 +17.6 80 +25 +25 комфорт 1011.8 1010.4
03 15.09 ЮЗ 1 20 км слаб. дождь н/о +21.2 +17.4 79 +25 +25 комфорт 1011.6 1010.2
04 15.09 Ю 2 20 км в посл. час дождь н/о +21.0 +17.0 78 +25 +25 комфорт 1011.3 1009.9
05 15.09 ЮЗ 1 20 км н/о +22.1 +16.8 72 +26 +26 душно 1010.9 1009.5
06 15.09 С 1 20 км {дождь} н/о +22.2 +16.9 72 +27 +27 душно 1010.7 1009.3 0.0
07 15.09 З 2 20 км н/о +22.3 +18.9 81 +28 +28 душно 1010.9 1009.5
08 15.09 СВ 1 20 км н/о +21.9 +18.3 80 +27 +27 душно 1011.0 1009.6
09 15.09 В 1 20 км н/о +21.6 +17.4 77 +26 +26 душно 1010.9 1009.5
10 15.09 ЮВ 2 20 км н/о +21.5 +17.3 77 +26 +26 душно 1011.0 1009.6
11 15.09 СВ 1 20 км н/о +21.6 +17.4 77 +26 +26 душно 1011.1 1009.7
12 15.09 ЮВ 1 20 км в посл. час дождь н/о +21.7 +17.3 76 +26 +26 душно 1011.0 1009.6 +22.7 0.0
13 15.09 В 1 20 км н/о +21.6 +16.6 73 +25 +25 комфорт 1010.7 1009.3
14 15.09 В 2 20 км н/о +21.7 +17.1 75 +26 +26 душно 1010.5 1009.1
16 15.09 С 1 20 км н/о +21.5 +17.7 79 +26 +26 душно 1009.8 1008.4
17 15.09 С 1 20 км н/о +21.4 +17.8 80 +26 +26 душно 1009.4 1008.0
18 15.09 В 2 20 км н/о +22.2 +17.6 75 +27 +27 душно 1008.4 1007.0
19 15.09 Ю 1 20 км н/о +21.9 +18.3 80 +27 +27 душно 1008.1 1006.7
21 15.09 СВ 1 20 км н/о +21.6 +18.4 82 +26 +26 душно 1008.2 1006.8
22 15.09 В 1 20 км н/о +22.5 +18.5 78 +28 +28 душно 1007.9 1006.5
23 15.09 ЮВ 1 20 км н/о +23.6 +18.5 73 +28 +28 душно 1007.7 1006.3
00 16.09 ЮВ 3 20 км н/о +24.9 +18.8 69 +30 +30 душно 1007.4 1006.0 +21.2
01 16.09 ЮВ 3 20 км н/о +25.9 +18.8 65 +31 +31 очень
душно
1007.0 1005.6
02 16.09 ЮВ 2 20 км н/о +27.5 +18.5 58 +32 +32 очень
душно
1006.2 1004.8
03 16.09 ЮВ 2 20 км н/о +26.6 +18.7 62 +32 +32 очень
душно
1005.7 1004.3
04 16.09 С 3 20 км н/о +25.3 +19.7 71 +31 +31 очень
душно
1004.9 1003.5
05 16.09 СВ 2 20 км н/о +24.9 +19.7 73 +30 +30 душно 1004.8 1003.4
06 16.09 В 2 20 км н/о +24.9 +19.7 73 +30 +30 душно 1004.4 1003.0
07 16.09 С 2 20 км н/о +24.1 +20.0 78 +30 +30 очень
душно
1004.4 1003.0
08 16.09 СЗ 2 20 км н/о +24.0 +20.5 81 +30 +30 очень
душно
1004.3 1002.9
09 16.09 СЗ 2 20 км н/о +23.8 +20.4 81 +29 +29 душно 1004.2 1002.8
10 16.09 СВ 1 18 км н/о +23.4 +20.7 85 +31 +31 очень
душно
1004.5 1003.1
11 16.09 В 1 20 км н/о +22.5 +20.6 89 +29 +29 очень
душно
1004.7 1003.3
12 16.09 С 1 20 км н/о +22.2 +20.3 89 +28 +28 душно 1004.9 1003.5 +27.7
13 16.09 В 1 20 км н/о +21.6 +19.7 89 +27 +27 душно 1005.2 1003.8
14 16.09 В 2 20 км н/о +21.0 +18.6 86 +26 +26 душно 1005.4 1004.0
15 16.09 СВ 2 20 км н/о +20.7 +18.1 85 +25 +25 комфорт 1005.8 1004.4
16 16.09 СЗ 7 20 км н/о +21.6 +16.6 73 +25 +25 комфорт 1006.1 1004.7
17 16.09 С 6 20 км н/о +21.3 +14.7 66 +24 +24 комфорт 1006.4 1005.0
18 16.09 В 2 20 км н/о +18.5 +15.6 83 +20 +20 1007.3 1005.9
19 16.09 СВ 3 20 км н/о +17.5 +9.4 59 +18 +18 1008.2 1006.8
20 16.09 ЮВ 1 20 км н/о +15.4 +10.0 70 +16 +16 1009.0 1007.6
21 16.09 штиль 0 20 км н/о +14.5 +10.7 78 +14 +14 1010.0 1008.6
22 16.09 штиль 0 20 км н/о +17.3 +12.4 73 +17 +17 1010.6 1009.2
23 16.09 СВ 2 20 км н/о +20.0 +12.0 60 +22 +22 комфорт 1011.2 1009.8
00 17.09 Ю 2 20 км н/о +21.2 +12.6 58 +23 +23 комфорт 1011.6 1010.2 +14.4
01 17.09 СЗ 4 20 км н/о +22.9 +10.7 46 +25 +25 комфорт 1011.7 1010.3
02 17.09 СЗ 6 20 км н/о +23.0 +13.2 54 +26 +26 жарко 1011.7 1010.3
03 17.09 СЗ 8 20 км н/о +23.4 +13.3 53 +27 +27 душно 1012.1 1010.7
04 17.09 СЗ 8 20 км н/о +23.1 +14.4 58 +27 +27 душно 1012.1 1010.7
05 17.09 СЗ 8 20 км н/о +22.9 +13.1 54 +26 +26 жарко 1012.0 1010.6
06 17.09 СЗ 9 20 км н/о +22.3 +12.6 54 +25 +25 комфорт 1012.1 1010.7
07 17.09 СЗ 9 20 км н/о +22.1 +10.9 49 +24 +24 комфорт 1012.4 1011.0
08 17.09 СЗ 7 20 км н/о +21.6 +12.7 57 +24 +24 комфорт 1013.3 1011.9
09 17.09 СЗ 5 20 км н/о +21.3 +13.7 62 +24 +24 комфорт 1013.4 1012.0
10 17.09 СЗ 5 20 км н/о +21.0 +12.7 59 +23 +23 комфорт 1013.7 1012.3
11 17.09 ЮВ 2 20 км н/о +18.8 +12.3 66 +20 +20 1013.7 1012.3
12 17.09 В 4 20 км н/о +18.7 +10.8 60 +19 +19 1014.0 1012.6 +23.6
13 17.09 В 3 20 км н/о +18.6 +10.7 60 +19 +19 1013.9 1012.5
14 17.09 В 1 20 км н/о +16.8 +11.3 70 +18 +18 1013.7 1012.3
15 17.09 В 1 20 км н/о +16.7 +11.4 71 +18 +18 1013.1 1011.7
16 17.09 В 1 20 км н/о +16.1 +12.1 77 +17 +17 1013.1 1011.7
17 17.09 СЗ 1 20 км н/о +16.1 +12.3 78 +17 +17 1012.9 1011.5
18 17.09 В 1 20 км н/о +16.1 +12.9 81 +17 +17 1012.9 1011.5
19 17.09 СВ 1 20 км н/о +15.9 +12.5 80 +17 +17 1012.7 1011.3
20 17.09 ЮЗ 1 20 км н/о +17.2 +13.5 79 +18 +18 1012.3 1010.9
21 17.09 ЮЗ 1 20 км н/о +17.0 +13.7 81 +18 +18 1012.4 1011.0
23 17.09 В 2 20 км н/о +19.4 +14.5 73 +22 +22 комфорт 1012.2 1010.8
00 18.09 ЮВ 2 20 км н/о +20.2 +14.8 71 +23 +23 комфорт 1011.5 1010.1 +15.7
01 18.09 ЮВ 2 20 км н/о +21.2 +15.1 68 +24 +24 комфорт 1010.8 1009.4
02 18.09 ЮВ 3 20 км н/о +21.7 +14.1 62 +25 +25 комфорт 1010.0 1008.6
03 18.09 ЮЗ 3 20 км н/о +22.0 +13.9 60 +25 +25 комфорт 1010.3 1008.9
04 18.09 ЮЗ 6 20 км н/о +22.4 +13.7 58 +26 +26 жарко 1009.5 1008.1
05 18.09 ЮЗ 5 20 км слаб. дождь н/о +23.3 +15.9 63 +28 +28 душно 1008.9 1007.5
06 18.09 ЮЗ 7 20 км в посл. час дождь н/о +23.2 +14.8 59 +27 +27 душно 1008.6 1007.2 0.0
07 18.09 ЮЗ 6 20 км н/о +22.4 +12.7 54 +25 +25 комфорт 1008.5 1007.1
09 18.09 ЮЗ 9 20 км н/о +21.8 +15.4 67 +25 +25 комфорт 1007.6 1006.2
10 18.09 СЗ 12 14 км слаб. дождь н/о +20.0 +15.9 77 +21 +21 комфорт 1009.3 1007.9
11 18.09 СЗ 11 20 км в посл. час дождь н/о +18.7 +12.2 66 +18 +18 1010.5 1009.1
12 18.09 СЗ 11 20 км {дождь} н/о +18.2 +8.8 54 +17 +17 1011.1 1009.7 +23.7 1
13 18.09 СЗ 11 20 км н/о +18.1 +8.9 55 +17 +17 1011.1 1009.7
14 18.09 СЗ 13 20 км н/о +16.9 +7.8 55 +15 +15 1011.7 1010.3
15 18.09 СЗ 12 20 км н/о +16.1 +7.1 55 +14 +14 1012.0 1010.6
16 18.09 З 9 17 км слаб. дождь н/о +15.1 +5.9 54 +13 +13 1012.2 1010.8
17 18.09 СЗ 11 20 км слаб. дождь н/о +16.2 +6.6 53 +14 +14 1012.2 1010.8
18 18.09 СЗ 12 20 км в посл. час дождь н/о +16.0 +4.7 47 +14 +14 1012.5 1011.1 0.0
19 18.09 СЗ 9 20 км н/о +15.1 +6.1 55 +13 +13 1012.5 1011.1
20 18.09 СЗ 11 20 км н/о +15.3 +7.4 59 +13 +13 1012.7 1011.3
21 18.09 З 10 20 км в посл. час дождь н/о +15.6 +3.7 45 +14 +14 1012.8 1011.4
22 18.09 З 9 20 км н/о +15.9 +3.7 44 +14 +14 1012.6 1011.2
23 18.09 З 10 20 км н/о +16.1 +3.2 42 +14 +14 1012.7 1011.3
00 19.09 З 11 20 км {дождь} н/о +16.9 +3.9 42 +15 +15 1012.4 1011.0 +14.8 0.0
01 19.09 З 11 20 км н/о +18.0 +1.9 34 +17 +17 1012.5 1011.1
02 19.09 З 9 20 км н/о +17.1 +3.8 41 +16 +16 1012.2 1010.8
03 19.09 З 12 20 км слаб. дождь н/о +17.5 +4.8 43 +16 +16 1012.2 1010.8
04 19.09 З 10 20 км в посл. час дождь н/о +17.3 +4.3 42 +16 +16 1011.6 1010.2
05 19.09 ЮЗ 10 20 км в посл. час дождь н/о +17.4 +8.8 57 +16 +16 1011.4 1010.0
06 19.09 ЮЗ 9 20 км слаб. дождь н/о +16.5 +10.1 66 +15 +15 1009.6 1008.2 0.0
07 19.09 З 12 20 км слаб. дождь н/о +18.1 +9.7 58 +17 +17 1010.1 1008.7
08 19.09 З 12 8000 м слаб. дождь н/о +16.7 +10.8 68 +15 +15 1010.0 1008.6
09 19.09 З 11 13 км слаб. дождь н/о +18.1 +8.9 55 +17 +17 1010.7 1009.3
10 19.09 З 10 17 км в посл. час дождь н/о +17.9 +7.4 50 +17 +17 1011.3 1009.9
11 19.09 З 10 16 км н/о +17.8 +8.4 54 +17 +17 1011.4 1010.0
12 19.09 З 10 19 км {дождь} н/о +18.0 +8.0 52 +17 +17 1011.5 1010.1 +18.5 1
13 19.09 З 9 18 км н/о +18.1 +8.1 52 +17 +17 1011.5 1010.1
14 19.09 З 8 20 км н/о +18.1 +7.8 51 +17 +17 1011.6 1010.2
15 19.09 СЗ 11 18 км слаб. дождь н/о +18.2 +9.0 55 +17 +17 1011.8 1010.4
16 19.09 З 6 16 км слаб. дождь н/о +16.9 +9.1 60 +16 +16 1012.1 1010.7
18 19.09 СЗ 10 20 км {дождь} н/о +17.9 +7.6 51 +17 +17 1012.0 1010.6 0.0
19 19.09 СЗ 11 20 км н/о +17.2 +7.8 54 +16 +16 1012.6 1011.2
20 19.09 СЗ 10 20 км н/о +17.2 +8.1 55 +16 +16 1013.2 1011.8
21 19.09 СЗ 10 20 км н/о +16.7 +6.8 52 +15 +15 1013.9 1012.5
22 19.09 СЗ 9 20 км н/о +16.9 +6.7 51 +15 +15 1014.1 1012.7
23 19.09 СЗ 9 20 км н/о +17.5 +7.3 51 +16 +16 1014.8 1013.4
00 20.09 СЗ 9 20 км н/о +18.0 +7.4 50 +17 +17 1015.3 1013.9 +16.7 0.0
01 20.09 З 8 20 км н/о +18.3 +7.4 49 +18 +18 1015.7 1014.3
02 20.09 З 8 20 км н/о +19.0 +8.1 49 +19 +19 1015.7 1014.3
03 20.09 СЗ 7 20 км н/о +18.4 +6.9 47 +18 +18 1016.0 1014.6
04 20.09 СЗ 7 20 км н/о +18.0 +8.0 52 +17 +17 1016.1 1014.7
05 20.09 СЗ 6 20 км н/о +17.9 +7.9 52 +17 +17 1016.3 1014.9
06 20.09 СЗ 7 20 км н/о +18.4 +8.4 52 +18 +18 1016.8 1015.4
07 20.09 СЗ 6 20 км н/о +18.3 +9.7 57 +18 +18 1017.5 1016.1
08 20.09 СЗ 6 20 км н/о +17.4 +8.8 57 +17 +17 1018.2 1016.8
09 20.09 СЗ 6 20 км н/о +17.3 +9.2 59 +17 +17 1019.0 1017.6
10 20.09 СЗ 6 20 км н/о +17.2 +8.6 57 +16 +16 1019.7 1018.3
11 20.09 В 2 20 км н/о +15.7 +8.7 63 +16 +16 1020.8 1019.3
12 20.09 В 2 20 км н/о +14.3 +8.7 69 +14 +14 1021.1 1019.6 +19.3
13 20.09 В 3 20 км н/о +13.8 +8.2 69 +13 +13 1021.6 1020.1
14 20.09 В 1 20 км н/о +13.0 +8.3 73 +13 +13 1022.1 1020.6
15 20.09 Ю 1 20 км н/о +11.9 +8.2 78 +13 +13 1022.3 1020.8

 

Местоположение метеостанции Эсаси (Япония): широта 41.87 долгота 140.11 высота над уровнем моря 12 м.

В архиве по умолчанию представлена погода в Эсаси за последнюю неделю. Архивные данные за месяц целиком и за предыдущие месяцы, начиная с января 2011 года, Вы можете получить, выбрав интересующий диапазон дат из раскрывающегося списка и нажав кнопку "Ввод!".


*Определитесь, кто Вы:
робот инопланетянин человек

Внимание! Время в таблицах - всемирное. Для получения местного времени необходимо прибавить поправку, которая равна 9 ч.

Смотрите также архив погоды в соседних городах и на ближайших метеорологических станциях:

Погода в Хакодате (Япония) (53 км)
Погода в Муроране (Япония) (88 км)
Погода в Суццу (Япония) (104 км)
Погода в Муцу (Япония) (113 км)
Погода в Куттяне (Япония) (126 км)
Погода в Аомори (Япония) (129 км)
Погода в Фукауре (Япония) (137 км)
Погода в Томакомае (Япония) (145 км)
Погода в Отару (Япония) (163 км)
Погода в Саппоро (Япония) (167 км)

Пояснения к столбцам:

Ветер - указаны скорость ветра в м/с - средняя за 10 мин, порывы в срок и между сроками (в фигурных скобках) и направление, откуда дует ветер: С - северный, СВ - северо-восточный, В - восточный, ЮВ - юго-восточный, Ю - южный, ЮЗ - юго-западный, З - западный, СЗ - северо-западный.
Видимость - горизонтальная дальность видимости в метрах или километрах. При видимости от 1 до 10 км при отсутствии осадков обычно наблюдается дымка, при ухудшении видимости до 1 км и менее - туман. В сухую погоду видимость может ухудшаться дымом, пылью или мглою.
Явления - указаны атмосферные явления, наблюдавшиеся в срок или в последний час перед сроком; фигурными скобками обозначены явления, наблюдавшиеся между сроками (за 1-3 часа до срока); квадратными скобками обозначены град или гололедные отложения с указанием их диаметра в мм.
Облачность - указаны через наклонную черту общая и нижняя облачность в баллах и высота нижней границы облаков в метрах; квадратными скобками обозначены формы облаков: Ci - перистые, Cs - перисто-слоистые, Cc - перисто-кучевые, Ac - высококучевые, As - высокослоистые, Sc - слоисто-кучевые, Ns - слоисто-дождевые, Cu - кучевые, Cb - кучево-дождевые. Подробнее классификацию облаков см. в Атласе облаков (PDF).
T - Температура воздуха - температура, измеренная на высоте 2 м над землей.
Td - Температура точки росы - температура, при понижении до которой содержащийся в воздухе водяной пар достигнет насыщения.
f - Относительная влажность воздуха - влажноcть воздуха, измеренная на высоте 2 м над землей.
Te - Эффективная температура - температура, которую ощущает одетый по сезону человек в тени. Характеристика душности погоды. При расчете учитывается влияние влажности воздуха и скорости ветра на теплоощущения человека.
Tes - Эффективная температура на солнце - температура, которую ощущает человек, с поправкой на солнечный нагрев. Характеристика знойности погоды. Зависит от высоты солнца над горизонтом, облачности и скорости ветра. Ночью, в пасмурную погоду, а также при ветре 12 м/с и более поправка равна нулю.
P - Атмосферное давление - приведенное к уровню моря атмосферное давление.
Po - Атмосферное давление - измеренное на уровне метеостанции атмосферное давление.
Tmin - Минимальная температура - минимум температуры воздуха на высоте 2 м над землей.
Tmax - Максимальная температура - максимум температуры воздуха на высоте 2 м над землей.
R - Количество осадков - Количество выпавших осадков за период времени, мм. При наведении курсора мыши на число - период времени, за который выпало указанное количество осадков.
R24 - Количество осадков - Количество выпавших осадков за 24 часа, мм.
S - Снежный покров - Высота снежного покрова, см. При наведении курсора мыши на число - состояние снежного покрова и степень покрытия местности в баллах.